Sioux City, IA

7:52 AM CST on December 16, 2019 (GMT -0600)
Sioux Gateway

Weather History for KSUX - October, 2019

Change the Weather History Date:

Tuesday, October 1, 2019

  Actual Average Record
Temperature  
Mean Temperature 56 °F 57 °F  
Max Temperature 62 °F 70 °F 91 °F (1963)
Min Temperature 51 °F 43 °F 25 °F (2003)
Degree Days  
Heating Degree Days 8 9  
Month to date heating degree days 9  
Since 1 July heating degree days 156  
Cooling Degree Days 0 1  
Month to date cooling degree days 1  
Year to date cooling degree days 862  
Growing Degree Days 6 (Base 50)    
Moisture  
Dew Point 54 °F    
Average Humidity 95    
Maximum Humidity 100    
Minimum Humidity 90    
Precipitation  
Precipitation 1.61 in 0.09 in 1.30 in (1894)
Month to date precipitation 0.09  
Year to date precipitation 23.59  
Snow  
Snow - 0.00 in T in (1999)
Month to date snowfall 0.0  
Since 1 July snowfall 0.0  
Since 1 September snowfall 0.0  
Snow Depth -    
Sea Level Pressure  
Sea Level Pressure 29.92 in    
Wind  
Wind Speed 10 mph ()    
Max Wind Speed 21 mph    
Max Gust Speed 28 mph    
Visibility 7.0 miles    
Events Rain , Thunderstorm    
T = Trace of Precipitation, MM = Missing Value Source: Averaged Metar Reports

Daily Weather History Graph

Daily Weather History Graph

Search for Another Location

Airport or City:

Astronomy

Oct. 01, 2019 Rise Set
Actual Time 7:22 AM CDT 7:07 PM CDT
Civil Twilight 6:54 AM CDT 7:35 PM CDT
Nautical Twilight 6:21 AM CDT 8:07 PM CDT
Astronomical Twilight 5:48 AM CDT 8:40 PM CDT
Moon 10:43 AM CDT (10/1) 9:17 PM CDT (10/1)
Length of Visible Light 12h 40m
Length of Day
11h 44m
Waxing Crescent, 12% of the Moon is Illuminated
Oct 1
Waxing Crescent
Oct 5
First Quarter
Oct 13
Full
Oct 21
Last Quarter
Oct 27
New

Hourly Weather History & Observations

Time (CDT) Temp. Dew Point Humidity Pressure Visibility Wind Dir Wind Speed Gust Speed Precip Events Conditions
12:13 AM 62.1 °F 59.0 °F 90% 29.90 in 10.0 mi NNW 12.7 mph - 0.00 in Rain Light Rain
12:26 AM 62.1 °F 60.1 °F 93% 29.88 in 10.0 mi North 12.7 mph - 0.01 in Rain , Thunderstorm Light Rain
12:38 AM 62.1 °F 60.1 °F 93% 29.89 in 9.0 mi North 8.1 mph - 0.02 in Rain , Thunderstorm Light Rain
12:52 AM 62.1 °F 60.1 °F 93% 29.88 in 10.0 mi NNW 10.4 mph - 0.02 in Rain , Thunderstorm Light Rain
1:03 AM 62.1 °F 60.1 °F 93% 29.91 in 7.0 mi NW 17.3 mph - 0.04 in Rain , Thunderstorm Thunderstorms and Rain
1:13 AM 61.0 °F 60.1 °F 97% 29.94 in 3.0 mi NW 15.0 mph 24.2 mph 0.09 in Rain , Thunderstorm Heavy Thunderstorms and Rain
1:16 AM 60.1 °F 59.0 °F 96% 29.93 in 1.5 mi NW 20.7 mph 27.6 mph 0.16 in Rain , Thunderstorm Heavy Thunderstorms and Rain
1:28 AM 60.1 °F 59.0 °F 96% 29.90 in 2.0 mi NNW 11.5 mph - 0.50 in Rain , Thunderstorm Heavy Rain
1:39 AM 60.1 °F 60.1 °F 100% 29.87 in 5.0 mi ENE 8.1 mph - 0.57 in Rain , Thunderstorm Light Rain
1:48 AM 60.8 °F 60.8 °F 100% 29.86 in 10.0 mi East 11.5 mph - 0.57 in Rain , Thunderstorm Light Rain
1:52 AM 61.0 °F 60.1 °F 97% 29.83 in 10.0 mi East 12.7 mph - 0.57 in Rain , Thunderstorm Light Rain
2:09 AM 61.0 °F 60.1 °F 97% 29.86 in 10.0 mi North 13.8 mph - 0.00 in   Overcast
2:36 AM 61.0 °F 59.0 °F 93% 29.88 in 10.0 mi NNW 12.7 mph 18.4 mph 0.00 in   Overcast
2:45 AM 61.0 °F 59.0 °F 93% 29.87 in 10.0 mi North 13.8 mph - 0.00 in   Overcast
2:52 AM 61.0 °F 59.0 °F 93% 29.85 in 10.0 mi NE 9.2 mph - 0.00 in   Overcast
3:40 AM 59.0 °F 57.0 °F 93% 29.89 in 10.0 mi NE 11.5 mph 23.0 mph 0.01 in Rain Light Rain
3:52 AM 57.9 °F 57.0 °F 97% 29.86 in 10.0 mi NE 12.7 mph - 0.01 in   Overcast
4:04 AM 57.9 °F 55.9 °F 93% 29.88 in 10.0 mi NE 11.5 mph 19.6 mph N/A   Overcast
4:31 AM 57.0 °F 55.0 °F 93% 29.89 in 10.0 mi NNE 6.9 mph - N/A Thunderstorm Overcast
4:49 AM 57.2 °F 55.4 °F 94% 29.91 in 10.0 mi NNW 10.4 mph - 0.00 in Rain , Thunderstorm Light Thunderstorms and Rain
4:52 AM 57.0 °F 55.0 °F 93% 29.90 in 10.0 mi NNW 15.0 mph - 0.00 in Rain , Thunderstorm Light Thunderstorms and Rain
5:04 AM 57.0 °F 55.0 °F 93% 29.91 in 10.0 mi North 10.4 mph - 0.00 in Rain Light Rain
5:20 AM 55.9 °F 55.0 °F 97% 29.92 in 10.0 mi NNW 11.5 mph - 0.00 in Rain Light Rain
5:52 AM 55.9 °F 54.0 °F 93% 29.90 in 10.0 mi North 10.4 mph - 0.05 in Rain Light Rain
6:38 AM 55.0 °F 54.0 °F 96% 29.92 in 10.0 mi NNE 8.1 mph - 0.00 in   Overcast
6:52 AM 55.0 °F 53.1 °F 93% 29.92 in 10.0 mi North 6.9 mph - 0.00 in Rain Light Rain
6:59 AM 55.0 °F 53.1 °F 93% 29.93 in 10.0 mi North 12.7 mph - 0.00 in Rain Light Rain
7:06 AM 54.0 °F 52.0 °F 93% 29.92 in 10.0 mi NE 10.4 mph - 0.00 in Rain , Thunderstorm Light Thunderstorms and Rain
7:22 AM 54.0 °F 52.0 °F 93% 29.92 in 2.0 mi NNE 13.8 mph - 0.15 in Rain , Thunderstorm Heavy Thunderstorms and Rain
7:36 AM 54.0 °F 53.1 °F 97% 29.94 in 2.0 mi North 10.4 mph - 0.19 in Rain , Thunderstorm Light Rain
7:47 AM 53.6 °F 51.8 °F 94% 29.90 in 10.0 mi North 15.0 mph - 0.20 in Rain , Thunderstorm Light Rain
7:52 AM 54.0 °F 52.0 °F 93% 29.91 in 10.0 mi North 11.5 mph - 0.20 in Rain Light Rain
8:17 AM 54.0 °F 52.0 °F 93% 29.96 in 10.0 mi North 9.2 mph - 0.00 in   Overcast
8:52 AM 54.0 °F 52.0 °F 93% 29.91 in 7.0 mi North 15.0 mph - 0.00 in   Overcast
9:15 AM 54.0 °F 53.1 °F 97% 29.96 in 9.0 mi Calm Calm - N/A   Overcast
9:52 AM 53.1 °F 52.0 °F 96% 29.96 in 2.0 mi NNE 9.2 mph - 0.00 in Rain Light Rain
10:45 AM 54.0 °F 52.0 °F 93% 29.94 in 5.0 mi NNE 10.4 mph - 0.05 in Rain Light Rain
10:52 AM 54.0 °F 53.1 °F 97% 29.94 in 5.0 mi NNE 8.1 mph - 0.05 in Rain Light Rain
11:48 AM 53.6 °F 51.8 °F 94% 29.96 in 2.5 mi North 8.1 mph - 0.01 in Rain , Thunderstorm Rain
11:52 AM 53.1 °F 53.1 °F 100% 29.96 in 2.5 mi NE 8.1 mph - 0.01 in Rain , Thunderstorm Light Rain
12:01 PM 54.0 °F 53.1 °F 97% 29.97 in 4.0 mi North 6.9 mph - 0.01 in Rain Light Rain
12:16 PM 54.0 °F 53.1 °F 97% 29.96 in 1.8 mi NNE 5.8 mph - 0.01 in Rain Light Rain
12:25 PM 54.0 °F 52.0 °F 93% 29.95 in 2.0 mi NE 9.2 mph - 0.02 in Rain Light Rain
12:36 PM 54.0 °F 52.0 °F 93% 29.96 in 4.0 mi NNE 8.1 mph - 0.02 in Rain Light Rain
12:43 PM 54.0 °F 53.1 °F 97% 29.94 in 7.0 mi NE 9.2 mph - 0.03 in Rain Light Rain
12:52 PM 53.1 °F 52.0 °F 96% 29.94 in 4.0 mi NNE 11.5 mph - 0.06 in Rain , Thunderstorm Thunderstorms and Rain
12:59 PM 53.1 °F 52.0 °F 96% 29.94 in 4.0 mi North 10.4 mph - 0.00 in Rain , Thunderstorm Thunderstorms and Rain
1:12 PM 53.1 °F 52.0 °F 96% 29.93 in 6.0 mi North 8.1 mph - 0.04 in Rain , Thunderstorm Rain
1:15 PM 53.1 °F 52.0 °F 96% 29.94 in 6.0 mi North 9.2 mph - 0.04 in Rain Rain
1:52 PM 53.1 °F 52.0 °F 96% 29.94 in 9.0 mi North 12.7 mph - 0.08 in Rain Light Rain
2:52 PM 53.1 °F 51.1 °F 93% 29.91 in 10.0 mi North 13.8 mph - 0.03 in   Overcast
3:52 PM 53.1 °F 51.1 °F 93% 29.92 in 9.0 mi North 11.5 mph - 0.02 in Rain Light Rain
4:52 PM 52.0 °F 51.1 °F 97% 29.92 in 7.0 mi North 11.5 mph - 0.06 in Rain Light Rain
5:29 PM 52.0 °F 51.1 °F 97% 29.92 in 1.8 mi North 5.8 mph - 0.06 in Rain Heavy Rain
5:39 PM 52.0 °F 51.1 °F 97% 29.91 in 2.0 mi ENE 6.9 mph - 0.17 in Rain Rain
5:49 PM 51.8 °F 51.8 °F 100% 29.93 in 3.0 mi North 5.8 mph - 0.21 in Rain Rain
5:52 PM 52.0 °F 51.1 °F 97% 29.94 in 4.0 mi NNW 6.9 mph - 0.21 in Rain Light Rain
6:01 PM 52.0 °F 51.1 °F 97% 29.93 in 5.0 mi North 9.2 mph - 0.01 in Rain Light Rain
6:44 PM 52.0 °F 51.1 °F 97% 29.93 in 5.0 mi North 6.9 mph - 0.09 in Rain Rain
6:52 PM 52.0 °F 51.1 °F 97% 29.94 in 5.0 mi North 6.9 mph - 0.11 in Rain Rain
7:52 PM 52.0 °F 50.0 °F 93% 29.94 in 10.0 mi North 12.7 mph - 0.12 in Rain Light Rain
8:52 PM 52.0 °F 50.0 °F 93% 29.95 in 10.0 mi North 12.7 mph - 0.01 in   Overcast
8:59 PM 52.0 °F 50.0 °F 93% 29.94 in 10.0 mi North 8.1 mph - N/A   Overcast
9:24 PM 52.0 °F 50.0 °F 93% 29.94 in 10.0 mi North 12.7 mph - N/A   Overcast
9:52 PM 51.1 °F 50.0 °F 96% 29.97 in 4.0 mi North 10.4 mph - N/A   Overcast
10:52 PM 51.1 °F 50.0 °F 96% 29.99 in 4.0 mi North 11.5 mph - 0.00 in   Overcast
11:52 PM 51.1 °F 48.9 °F 92% 30.00 in 5.0 mi North 12.7 mph - N/A   Overcast